User: anonymous   Login
Location: Fort Wayne
(41.1310°N, 85.1290°W)
Time: 16:16:02
(UTC-05:00)
Language:

Cosmos 1953 - Orbit

View from above orbital plane
View from above orbital plane
View from above satellite
View from above satellite

Ground track
Ground track

The orbit data is extracted from the following two-line orbital elements,

1 19210U 88050A   17016.58984801  .00000928  00000-0  63068-4 0  9998
2 19210  82.5168 180.3433 0014731  60.0006 300.2680 15.05106375555035
Epoch (UTC): 16 January 2017 14:09:22
Eccentricity: 0.0014731
inclination: 82.5168°
perigee height: 541 km
apogee height: 561 km
right ascension of ascending node: 180.3433°
argument of perigee: 60.0006°
revolutions per day: 15.05106375
mean anomaly at epoch: 300.2680°
orbit number at epoch: 55503

The dashed part of the orbit path shows where the satellite is in the earth's shadow,  

DLR